Weather Roundup
Issued by NWS

Home | Current Version | Previous Version | Graphics & Text | Print | Product List | Glossary Off
Versions: 1 2 3 4 5 6 7 8 9 10 11 12 13 14 15 16 17 18 19 20 21 22 23 24 25 26 27 28 29 30 31 32 33 34 35 36 37 38 39 40 41 42 43 44 45 46 47 48 49 50

000
NZUS93 KARX 230610
HRRWXR

CURRENT HOURLY OBSERVATIONS ACROSS
MUCH OF THE UPPER MISSISSIPPI VALLEY
NATIONAL WEATHER SERVICE LA CROSSE WI
1200 AM CST MON JAN 23 2017


...SOUTHEAST MINNESOTA...


CITY           SKY/WX    TMP DP  RH WIND       PRES   REMARKS
ROCHESTER      CLOUDY    32  32 100 NW12      29.77S WCI  23
ROCHESTER/MAYO CLOUDY    33  33 100 W15       29.77S WCI  23
WINONA         CLOUDY    34  34 100 CALM      29.78S FOG
AUSTIN         CLOUDY    32  30  93 NW12      29.79R FOG     WCI  23
ALBERT LEA     CLOUDY    32  32 100 NW9       29.79S FOG     WCI  24
DODGE CENTER   CLOUDY    30  30 100 NW9G17    29.77F FOG     WCI  22
PRESTON        CLOUDY    32  32  99 NW8       29.78R FOG     WCI  25
OWATONNA       CLOUDY    32  30  93 W7        29.79F FOG     WCI  26
FARIBAULT      NOT AVBL
$$

...ELSEWHERE IN MINNESOTA...


CITY           SKY/WX    TMP DP  RH WIND       PRES   REMARKS
MINNEAPOLIS    DRIZZLE   34  31  88 W6        29.78F FOG     WCI  29
INTNL FALLS    FOG       34  33  96 W3        29.72S VSB 3/4
DULUTH         CLOUDY    35  34  96 W6        29.71S WCI  30
RED WING       CLOUDY    36  34  93 W6        29.77F FOG     WCI  31
REDWOOD FALLS  CLOUDY    33  29  85 W7        29.82S WCI  27
MANKATO        CLOUDY    32  30  92 W8        29.80F FOG     WCI  25
WORTHINGTON    CLOUDY    30  28  92 NW12      29.83F WCI  20
FAIRMONT       CLOUDY    31  29  92 NW12      29.83S WCI  22
$$

...SOUTHWEST WISCONSIN...


CITY           SKY/WX    TMP DP  RH WIND       PRES   REMARKS
LA CROSSE      CLOUDY    39  36  89 N3        29.78R FOG
PRAIRIE DU CHI CLOUDY    36  33  92 W7        29.79S FOG     WCI  30
BOSCOBEL       CLOUDY    38  35  89 CALM      29.78S
LONE ROCK      CLOUDY    36  34  92 W5        29.78R FOG     WCI  32
PLATTEVILLE    CLOUDY    36  36 100 NW3       29.77S
FORT MC COY    DRIZZLE   34  34 100 CALM      29.78R
CAMP DOUGLAS   CLOUDY    35  35  99 NW5       29.75S WCI  31
MAUSTON-NEW LI CLOUDY    35  35  99 NW5       29.75S FOG     WCI  31
VIROQUA        CLOUDY    34  34 100 CALM      29.76R
WIS DELLS      CLOUDY    35  35 100 W3        29.75S FOG
$$

...ELSEWHERE IN WISCONSIN...


CITY           SKY/WX    TMP DP  RH WIND       PRES   REMARKS
MILWAUKEE      CLOUDY    38  35  89 CALM      29.73R FOG
MADISON        CLOUDY    36  35  96 NW7       29.75S FOG     WCI  30
GREEN BAY      FOG       36  35  96 W3        29.72S VSB 3/4
EAU CLAIRE     FOG       34  34 100 SW3       29.75S VSB 1/4
BLACK RVR FLS  CLOUDY    35  35 100 CALM      29.76R FOG
MEDFORD        CLOUDY    33  33 100 CALM      29.72R FOG
WAUSAU         CLOUDY    35  34  96 CALM      29.71R
WIS RAPIDS     CLOUDY    35  35 100 NW3       29.75R FOG
MARSHFIELD     FOG       34  33  96 NW7       29.72R VSB 1/2 WCI  28
RICE LAKE      CLOUDY    35  35 100 W3        29.75F FOG
$$

...NORTHEAST IOWA...


CITY           SKY/WX    TMP DP  RH WIND       PRES   REMARKS
WATERLOO       CLOUDY    35  34  96 NW7       29.81R WCI  29
DUBUQUE        CLOUDY    35  34  96 N5        29.77S FOG     WCI  31
DECORAH        CLOUDY    36  34  93 CALM      29.77S
MASON CITY     CLOUDY    32  31  96 NW13      29.82R FOG     WCI  22
CHARLES CITY   CLOUDY    34  34 100 NW8       29.81R FOG     WCI  27
OELWEIN        CLOUDY    34  34 100 NW10      29.79F FOG     WCI  26
$$

...ELSEWHERE IN IOWA...


CITY           SKY/WX    TMP DP  RH WIND       PRES   REMARKS
DES MOINES     DRIZZLE   35  34  96 NW13      29.87R FOG     WCI  26
IOWA CITY      CLOUDY    37  34  89 NW9       29.82S WCI  30
FORT DODGE     CLOUDY    30  28  93 NW6       29.85R WCI  24
MARSHALLTOWN   CLOUDY    36  35  96 NW10      29.82S WCI  28
CEDAR RAPIDS   CLOUDY    34  33  96 NW7       29.80R FOG     WCI  28
$$

...NORTHERN ILLINOIS...


CITY           SKY/WX    TMP DP  RH WIND       PRES   REMARKS
CHICAGO-OHARE  CLOUDY    39  37  92 N9        29.70R WCI  33
CHICAGO-MIDWAY CLOUDY    40  36  86 N9G22     29.69R WCI  34
MOLINE         CLOUDY    38  34  85 NW9       29.77S WCI  31
ROCKFORD       LGT RAIN  38  35  89 N7        29.76S FOG     WCI  33
PEORIA         CLOUDY    39  35  86 N8        29.74R WCI  33
$$

NOTE: "FAIR" INDICATES FEW OR NO CLOUDS BELOW 12,000 FEET WITH NO
SIGNIFICANT WEATHER AND/OR OBSTRUCTIONS TO VISIBILITY. WIND
SPEEDS ARE IN MILES-PER-HOUR.




USA.gov is the U.S. government's official web portal to all federal, state and local government web resources and services.